Weather Roundup
Issued by NWS Chicago, IL

Home | Current Version | Previous Version | Graphics & Text | Print | Product List | Glossary On
Versions: 1 2 3 4 5 6 7 8 9 10 11 12 13 14 15 16 17 18 19 20 21 22 23 24 25 26 27 28 29 30 31 32 33 34 35 36 37 38 39 40 41 42 43 44 45 46 47 48 49 50
000
NZUS59 KLOT 181403
HRRLOT

CHICAGO AREA WEATHER ROUNDUP
NATIONAL WEATHER SERVICE CHICAGO/ROMEOVILLE IL
800 AM CST THU JAN 18 2018

NOTE: "FAIR" INDICATES FEW OR NO CLOUDS BELOW 12,000 FEET WITH NO
SIGNIFICANT WEATHER AND/OR OBSTRUCTIONS TO VISIBILITY.

* THESE STATIONS ARE NOT UNDER NWS QUALITY CONTROL. THEY ALSO MAY NOT
  REPORT WEATHER SUCH AS PRECIPITATION OR FOG.

ILZ005-006-012>014-019>023-181500-
NORTHEAST ILLINOIS

CITY           SKY/WX    TMP DP  RH WIND       PRES   REMARKS
OHARE            N/A     17  10  74 SW15      30.11F WCI   2
MIDWAY           N/A     18  11  74 SW17      30.14F WCI   3
AURORA           N/A     15   9  76 SW12G17   30.14F WCI   2
LANSING*         N/A     15  10  83 SW10      30.18F WCI   2
JOLIET*          N/A     17  11  76 SW6       30.18F WCI   9
WAUKEGAN         N/A     18  10  71 SW12G20   30.06F WCI   5
DUPAGE AIRPORT   N/A     15  10  80 SW16      30.12F HAZE    WCI  -1
WHEELING         N/A     17  10  74 SW9       30.12F WCI   6
KANKAKEE*        N/A     15   9  75 SW15      30.23F WCI   0
MORRIS*          N/A     17  10  73 SW12      30.18S WCI   4
LEWIS AIRPORT*   N/A     17  11  77 SW13      30.16F WCI   3
NORTHERLY ISL    N/A     18  10  71 SW16        N/A  WCI   3
$$

WIZ051-052-058>065-066-070>072-181500-
SOUTHEAST WISCONSIN

CITY           SKY/WX    TMP DP  RH WIND       PRES   REMARKS
MILWAUKEE        N/A     20  11  68 W15G26    30.02F WCI   6
KENOSHA*         N/A     18   9  68 SW20      30.04F WCI   2
RACINE*          N/A     19  11  70 W15G28    30.04F WCI   5
BURLINGTON       N/A     17  10  71 SW14G20   30.05F WCI   3
WAUKESHA       CLEAR     16   9  73 SW10G16   30.01F WCI   3
WEST BEND        N/A     19  12  73 W13G20    29.96F WCI   7
$$

INZ001>003-010>013-019-020-181500-
NORTHWEST INDIANA

CITY           SKY/WX    TMP DP  RH WIND       PRES   REMARKS
GARY*          NOT AVBL
MICHIGAN CITY* NOT AVBL
RENSSELAER*    NOT AVBL
VALPARAISO       N/A     17  10  74 SW18      30.18F WCI   1
$$

LMZ740>746-181500-
SOUTHERN LAKE MICHIGAN

STATION/POSITION TIME  SKY/WX   TEMP WIND        PRES    VSBY
                                AIR  DIR/SP/G
                 (UTC)          (F)  (DEG/KT/KT) (MB)    (MI)
HARRISON CRIB    1340            21  220/ 19/ 22   N/A
BURNHAM HARBOR   1400            19  240/ 14/ 19   N/A
CALUMET HARBOR   1330            17  210/  8/ 14 1020.8F
BURNS HARBOR     1340            16  220/ 15/ 20 1022.0F
MICHIGAN CITY    1340            17  200/ 16/ 18   N/A
$$

ABBREVIATIONS USED IN REMARKS
   TC - TEMPERATURE IN CELSIUS
  WCI - WIND CHILL INDEX
   HX - HEAT INDEX
  VSB - VISIBILITY
$$



USA.gov is the U.S. government's official web portal to all federal, state and local government web resources and services.